www.pogodaiklimat.ru

Погода и климат >> Архив погоды >> Сенегал >> Тамбакунда


ПОГОДА в Тамбакунде

  • Прогноз погоды в Тамбакунде
  • Монитор погоды в Тамбакунде

АРХИВ ПОГОДЫ в Тамбакунде

Время (UTC), дата Ветер
(напр.,м/с)
 
Видим.   Явления Облачность Т
(С)
Тd
(С)
f
(%)
Тe
(С)
Тes
(С)
Комфортность P
(гПа)
Po
(гПа)
Тmin
(С)
Tmax
(С)
R
(мм)
R24
(мм)
S
(см)
09 11.02 СВ 4 4000 м пыль 6/0
[Ci sp]
+24.5 +1.3 22 +23 +26 комфорт 1012.8 1007.1
12 11.02 СВ 8 10 км 8/0
[Ci sp]
+34.2 +1.3 12 +31 +33 жарко 1012.9 1007.2
15 11.02 СВ 5 10 км 9/0
[Ci sp]
+38.2 +4.6 13 +35 +41 очень
жарко
1009.9 1004.3
18 11.02 С 4 10 км 9/0
[Ac trans Ci sp]
+36.8 +4.6 14 +34 +34 очень
жарко
1009.3 1003.7 +38.4
21 11.02 С 2 10 км 9/0
[Ac trans Ci sp]
+30.4 +5.0 20 +29 +29 жарко 1011.0 1005.3
00 12.02 С 2 10 км 5/0
[Ac trans Ci sp]
+27.4 +4.3 23 +26 +26 жарко 1011.9 1006.3
03 12.02 штиль 0 10 км 4/0
[Ci sp]
+23.8 +2.1 24 +23 +23 комфорт 1011.0 1005.4
06 12.02 С 3 10 км 4/0
[Ci sp]
+21.6 -0.1 24 +21 +21 комфорт 1011.4 1005.7 +21.0
09 12.02 СВ 5 10 км ясно +24.5 +0.5 21 +23 +25 комфорт 1013.0 1007.3
12 12.02 СВ 7 10 км 3/0
[Ci sp]
+34.3 +1.1 12 +31 +35 жарко 1013.2 1007.6
15 12.02 В 6 6000 м пыльный позёмок 3/0
[Ac trans Ci sp]
+38.2 +3.4 12 +35 +39 очень
жарко
1009.7 1004.1
18 12.02 СВ 6 6000 м пыльный позёмок 3/0
[Ac trans Ci sp]
+37.2 +2.9 12 +34 +34 очень
жарко
1008.8 1003.2 +38.6
21 12.02 С 3 10 км 1/0
[Ci sp]
+30.2 +2.1 17 +28 +28 жарко 1011.0 1005.3
00 13.02 С 3 10 км ясно +26.3 +0.2 18 +24 +24 комфорт 1012.2 1006.6
03 13.02 С 4 10 км ясно +25.2 -2.0 16 +23 +23 комфорт 1011.7 1005.9
06 13.02 С 3 10 км ясно +22.2 -2.6 19 +21 +21 комфорт 1011.5 1005.8 +21.0
09 13.02 СВ 4 10 км 8/0
[Ac trans Ci sp]
+24.8 -1.3 18 +23 +25 комфорт 1013.7 1008.0
12 13.02 СВ 7 4000 м пыльный позёмок 1/0
[Ac trans]
+34.5 +0.3 11 +31 +35 жарко 1013.3 1007.6
15 13.02 СВ 6 7000 м пыль 5/0
[Ci sp]
+37.8 +1.1 10 +34 +38 очень
жарко
1010.0 1004.4
18 13.02 СВ 4 10 км 4/0
[Ci fib]
+37.0 +4.7 14 +34 +35 очень
жарко
1009.0 1003.3 +37.0
21 13.02 С 3 10 км 4/0
[Ci sp]
+30.2 +3.5 18 +28 +28 жарко 1011.3 1005.6
00 14.02 С 3 10 км 6/0
[Ac trans]
+27.0 +2.1 20 +25 +25 комфорт 1012.7 1007.1
03 14.02 СВ 4 10 км 8/0
[Ac trans]
+27.0 -0.7 16 +25 +25 комфорт 1012.1 1006.5
06 14.02 С 3 10 км 4/0
[Ac trans]
+25.0 +0.5 20 +24 +24 комфорт 1012.0 1006.3 +24.5
09 14.02 С 4 10 км 8/0
[Ac trans]
+26.4 -0.5 17 +24 +26 комфорт 1014.1 1008.4
12 14.02 В 7 10 км 5/0
[Ac trans Ci sp]
+34.9 +1.4 12 +32 +35 жарко 1014.3 1008.7
15 14.02 С 2 10 км 5/0
[Ac trans Ci sp]
+38.5 +3.8 12 +35 +45 очень
жарко
1010.9 1005.3
18 14.02 Ю 1 10 км 9/0
[Ac As]
+37.0 +6.8 16 +35 +35 очень
жарко
1010.9 1005.3 +38.6
21 14.02 СВ 3 10 км 9/0
[Ac As]
+32.7 +5.3 18 +30 +30 жарко 1012.7 1007.0
00 15.02 С 2 10 км 9/0
[Ac As]
+30.2 +5.9 22 +29 +29 жарко 1014.0 1008.4
03 15.02 С 2 10 км 8/0
[Ac As]
+29.2 +4.9 21 +28 +28 жарко 1013.9 1008.9
06 15.02 С 3 10 км 5/0
[Ac As]
+27.4 -0.1 17 +25 +25 комфорт 1012.9 1007.3 +25.8
09 15.02 СВ 2 10 км 8/0
[Ac trans Ci sp]
+26.8 +4.1 23 +26 +28 жарко 1011.4 1008.7
12 15.02 В 6 10 км 8/0
[Ac trans Ci sp]
+35.6 +1.1 11 +32 +37 жарко 1013.9 1008.3
15 15.02 В 3 10 км 8/0
[Ci sp]
+39.6 +3.4 11 +36 +45 очень
жарко
1010.2 1004.7
18 15.02 СЗ 2 10 км 8/0
[Ci sp]
+38.6 +8.2 16 +37 +37 очень
жарко
1009.3 1003.7 +40.2
21 15.02 СЗ 2 10 км 6/0
[Ci sp]
+32.8 +9.5 24 +32 +32 жарко 1011.2 1005.5
00 16.02 С 2 10 км 6/0
[Ci sp]
+29.0 +5.8 23 +28 +28 жарко 1012.1 1006.5
03 16.02 С 2 10 км 6/0
[Ci sp]
+26.0 +7.3 30 +26 +26 жарко 1010.9 1005.4
06 16.02 С 3 10 км 6/0
[Ci sp]
+27.4 -1.0 16 +25 +25 комфорт 1010.9 1005.3 +25.9
09 16.02 С 3 10 км 8/0
[Ac trans Ci sp]
+27.5 +3.5 21 +26 +28 жарко 1012.1 1006.4
12 16.02 С 4 10 км 6/0
[Ac trans Ci sp]
+36.4 +3.2 13 +33 +43 жарко 1011.9 1006.3
15 16.02 С 3 10 км 6/0
[]
+40.0 +6.7 13 +37 +45 очень
жарко
1008.8 1003.2
18 16.02 С 3 10 км 9/0
[Ac trans Ci sp]
+38.4 +6.9 15 +36 +36 очень
жарко
1008.4 1002.8 +40.2
21 16.02 С 3 10 км 9/0
[Ac trans Ci sp]
+33.7 +4.8 16 +31 +31 жарко 1010.5 1004.8
00 17.02 СЗ 4 10 км 5/0
[Ac trans Ci sp]
+31.5 +1.6 15 +29 +29 жарко 1011.2 1005.6
03 17.02 СЗ 4 10 км 5/0
[Ac trans Ci sp]
+28.8 +2.0 18 +27 +27 жарко 1010.4 1004.8
06 17.02 С 3 10 км 3/0
[Ci sp]
+25.4 +3.8 25 +25 +25 комфорт 1010.6 1005.0 +25.0
09 17.02 СЗ 4 10 км 5/0
[Ci sp]
+25.5 +4.3 25 +25 +27 комфорт 1012.6 1006.9
12 17.02 С 4 10 км 5/0
[Ci fib]
+34.7 +6.2 17 +32 +42 жарко 1012.3 1006.7
15 17.02 С 3 10 км 8/0
[Ci sp]
+39.4 +9.0 16 +38 +47 очень
жарко
1009.0 1003.4
18 17.02 СВ 2 10 км 6/0
[Ci sp]
+39.0 +9.7 17 +37 +38 очень
жарко
1008.0 1002.4 +39.6
21 17.02 З 2 10 км 8/0
[Ci fib]
+31.8 +8.9 24 +31 +31 жарко 1010.0 1004.3
03 18.02 СЗ 4 10 км 6/0
[Ci sp]
+26.2 +2.7 22 +25 +25 комфорт 1010.3 1004.7
06 18.02 В 1 10 км 5/0
[Ci sp]
+22.7 +3.1 28 +23 +23 комфорт 1010.2 1004.6 +22.2

 

Местоположение метеостанции Тамбакунда (Сенегал): широта 13.77 долгота -13.68 высота над уровнем моря 50 м.

В архиве по умолчанию представлена погода в Тамбакунде за последнюю неделю. Архивные данные за месяц целиком и за предыдущие месяцы, начиная с января 2011 года, Вы можете получить, выбрав интересующий диапазон дат из раскрывающегося списка и нажав кнопку "Ввод!".


*Определитесь, кто Вы:
робот инопланетянин человек

Внимание! Время в таблицах - всемирное. Для получения местного времени необходимо прибавить поправку, которая равна 0 ч.

Смотрите также архив погоды в соседних городах и на ближайших метеорологических станциях:

Погода в Фатото (Гамбия) (33 км)
Погода в Бассе (Гамбия) (85 км)
Погода в Джорджтауне (Гамбия) (121 км)
Погода в Кундаре (Гвинея) (135 км)
Погода в Колде (Сенегал) (170 км)
Погода в Кауере (Гамбия) (177 км)
Погода в Женое (Гамбия) (207 км)
Погода в Кедугу (Сенегал) (208 км)
Погода в Бафате (Гвинея-Биссау) (208 км)
Погода в Матаме (Сенегал) (214 км)

Пояснения к столбцам:

Ветер - указаны скорость ветра в м/с - средняя за 10 мин, порывы в срок и между сроками (в фигурных скобках) и направление, откуда дует ветер: С - северный, СВ - северо-восточный, В - восточный, ЮВ - юго-восточный, Ю - южный, ЮЗ - юго-западный, З - западный, СЗ - северо-западный.
Видимость - горизонтальная дальность видимости в метрах или километрах. При видимости от 1 до 10 км при отсутствии осадков обычно наблюдается дымка, при ухудшении видимости до 1 км и менее - туман. В сухую погоду видимость может ухудшаться дымом, пылью или мглою.
Явления - указаны атмосферные явления, наблюдавшиеся в срок или в последний час перед сроком; фигурными скобками обозначены явления, наблюдавшиеся между сроками (за 1-3 часа до срока); квадратными скобками обозначены град или гололедные отложения с указанием их диаметра в мм.
Облачность - указаны через наклонную черту общая и нижняя облачность в баллах и высота нижней границы облаков в метрах; квадратными скобками обозначены формы облаков: Ci - перистые, Cs - перисто-слоистые, Cc - перисто-кучевые, Ac - высококучевые, As - высокослоистые, Sc - слоисто-кучевые, Ns - слоисто-дождевые, Cu - кучевые, Cb - кучево-дождевые. Подробнее классификацию облаков см. в Атласе облаков (PDF).
T - Температура воздуха - температура, измеренная на высоте 2 м над землей.
Td - Температура точки росы - температура, при понижении до которой содержащийся в воздухе водяной пар достигнет насыщения.
f - Относительная влажность воздуха - влажноcть воздуха, измеренная на высоте 2 м над землей.
Te - Эффективная температура - температура, которую ощущает одетый по сезону человек в тени. Характеристика душности погоды. При расчете учитывается влияние влажности воздуха и скорости ветра на теплоощущения человека.
Tes - Эффективная температура на солнце - температура, которую ощущает человек, с поправкой на солнечный нагрев. Характеристика знойности погоды. Зависит от высоты солнца над горизонтом, облачности и скорости ветра. Ночью, в пасмурную погоду, а также при ветре 12 м/с и более поправка равна нулю.
P - Атмосферное давление - приведенное к уровню моря атмосферное давление.
Po - Атмосферное давление - измеренное на уровне метеостанции атмосферное давление.
Tmin - Минимальная температура - минимум температуры воздуха на высоте 2 м над землей.
Tmax - Максимальная температура - максимум температуры воздуха на высоте 2 м над землей.
R - Количество осадков - Количество выпавших осадков за период времени, мм. При наведении курсора мыши на число - период времени, за который выпало указанное количество осадков.
R24 - Количество осадков - Количество выпавших осадков за 24 часа, мм.
S - Снежный покров - Высота снежного покрова, см. При наведении курсора мыши на число - состояние снежного покрова и степень покрытия местности в баллах.